Year,Month,Day,Hour,Minute,Value (Times are PST for temperature in C)
2015,06,29,00,00,19.10
2015,06,29,00,01,19.10
2015,06,29,00,02,19.10
2015,06,29,00,03,19.10
2015,06,29,00,04,19.10
2015,06,29,00,05,19.10
2015,06,29,00,06,19.20
2015,06,29,00,07,19.20
2015,06,29,00,08,19.20
2015,06,29,00,09,19.20
2015,06,29,00,10,19.20
2015,06,29,00,11,19.20
2015,06,29,00,12,19.20
2015,06,29,00,13,19.20
2015,06,29,00,14,19.20
2015,06,29,00,15,19.20
2015,06,29,00,16,19.20
2015,06,29,00,17,19.20
2015,06,29,00,18,19.20
2015,06,29,00,19,19.20
2015,06,29,00,20,19.20
2015,06,29,00,21,19.20
2015,06,29,00,22,19.20
2015,06,29,00,23,19.20
2015,06,29,00,24,19.20
2015,06,29,00,25,19.20
2015,06,29,00,26,19.20
2015,06,29,00,27,19.20
2015,06,29,00,28,19.20
2015,06,29,00,29,19.20
2015,06,29,00,30,19.20
2015,06,29,00,31,19.20
2015,06,29,00,32,19.20
2015,06,29,00,33,19.20
2015,06,29,00,34,19.20
2015,06,29,00,35,19.10
2015,06,29,00,36,19.10
2015,06,29,00,37,19.10
2015,06,29,00,38,19.10
2015,06,29,00,39,19.10
2015,06,29,00,40,19.10
2015,06,29,00,41,19.10
2015,06,29,00,42,19.10
2015,06,29,00,43,19.00
2015,06,29,00,44,19.00
2015,06,29,00,45,19.00
2015,06,29,00,46,19.00
2015,06,29,00,47,18.90
2015,06,29,00,48,18.90
2015,06,29,00,49,18.90
2015,06,29,00,50,18.90
2015,06,29,00,51,18.90
2015,06,29,00,52,18.90
2015,06,29,00,53,18.80
2015,06,29,00,54,18.80
2015,06,29,00,55,18.80
2015,06,29,00,56,18.80
2015,06,29,00,57,18.80
2015,06,29,00,58,18.80
2015,06,29,00,59,18.80
2015,06,29,01,00,18.80
2015,06,29,01,01,18.80
2015,06,29,01,02,18.80
2015,06,29,01,03,18.70
2015,06,29,01,04,18.70
2015,06,29,01,05,18.70
2015,06,29,01,06,18.70
2015,06,29,01,07,18.70
2015,06,29,01,08,18.70
2015,06,29,01,09,18.70
2015,06,29,01,10,18.70
2015,06,29,01,11,18.70
2015,06,29,01,12,18.70
2015,06,29,01,13,18.70
2015,06,29,01,14,18.70
2015,06,29,01,15,18.70
2015,06,29,01,16,18.70
2015,06,29,01,17,18.70
2015,06,29,01,18,18.70
2015,06,29,01,19,18.70
2015,06,29,01,20,18.70
2015,06,29,01,21,18.70
2015,06,29,01,22,18.60
2015,06,29,01,23,18.60
2015,06,29,01,24,18.60
2015,06,29,01,25,18.60
2015,06,29,01,26,18.60
2015,06,29,01,27,18.60
2015,06,29,01,28,18.60
2015,06,29,01,29,18.60
2015,06,29,01,30,18.60
2015,06,29,01,31,18.60
2015,06,29,01,32,18.60
2015,06,29,01,33,18.50
2015,06,29,01,34,18.50
2015,06,29,01,35,18.50
2015,06,29,01,36,18.50
2015,06,29,01,37,18.50
2015,06,29,01,38,18.40
2015,06,29,01,39,18.40
2015,06,29,01,40,18.40
2015,06,29,01,41,18.40
2015,06,29,01,42,18.40
2015,06,29,01,43,18.40
2015,06,29,01,44,18.40
2015,06,29,01,45,18.40
2015,06,29,01,46,18.30
2015,06,29,01,47,18.30
2015,06,29,01,48,18.30
2015,06,29,01,49,18.30
2015,06,29,01,50,18.30
2015,06,29,01,51,18.30
2015,06,29,01,52,18.30
2015,06,29,01,53,18.30
2015,06,29,01,54,18.30
2015,06,29,01,55,18.20
2015,06,29,01,56,18.30
2015,06,29,01,57,18.20
2015,06,29,01,58,18.20
2015,06,29,01,59,18.20
2015,06,29,02,00,18.20
2015,06,29,02,01,18.20
2015,06,29,02,02,18.20
2015,06,29,02,03,18.20
2015,06,29,02,04,18.20
2015,06,29,02,05,18.20
2015,06,29,02,06,18.20
2015,06,29,02,07,18.20
2015,06,29,02,08,18.20
2015,06,29,02,09,18.20
2015,06,29,02,10,18.20
2015,06,29,02,11,18.20
2015,06,29,02,12,18.20
2015,06,29,02,13,18.20
2015,06,29,02,14,18.20
2015,06,29,02,15,18.10
2015,06,29,02,16,18.10
2015,06,29,02,17,18.10
2015,06,29,02,18,18.10
2015,06,29,02,19,18.10
2015,06,29,02,20,18.10
2015,06,29,02,21,18.10
2015,06,29,02,22,18.10
2015,06,29,02,23,18.10
2015,06,29,02,24,18.10
2015,06,29,02,25,18.10
2015,06,29,02,26,18.10
2015,06,29,02,27,18.00
2015,06,29,02,28,18.00
2015,06,29,02,29,18.00
2015,06,29,02,30,18.00
2015,06,29,02,31,18.00
2015,06,29,02,32,18.00
2015,06,29,02,33,18.00
2015,06,29,02,34,18.00
2015,06,29,02,35,18.00
2015,06,29,02,36,18.00
2015,06,29,02,37,18.00
2015,06,29,02,38,18.00
2015,06,29,02,39,17.90
2015,06,29,02,40,17.90
2015,06,29,02,41,17.90
2015,06,29,02,42,17.90
2015,06,29,02,43,17.90
2015,06,29,02,44,17.90
2015,06,29,02,45,17.90
2015,06,29,02,46,17.80
2015,06,29,02,47,17.80
2015,06,29,02,48,17.80
2015,06,29,02,49,17.80
2015,06,29,02,50,17.80
2015,06,29,02,51,17.80
2015,06,29,02,52,17.80
2015,06,29,02,53,17.80
2015,06,29,02,54,17.80
2015,06,29,02,55,17.80
2015,06,29,02,56,17.80
2015,06,29,02,57,17.80
2015,06,29,02,58,17.70
2015,06,29,02,59,17.80
2015,06,29,03,00,17.70
2015,06,29,03,01,17.70
2015,06,29,03,02,17.70
2015,06,29,03,06,17.70
2015,06,29,03,07,17.70
2015,06,29,03,08,17.70
2015,06,29,03,09,17.70
2015,06,29,03,10,17.70
2015,06,29,03,11,17.70
2015,06,29,03,12,17.60
2015,06,29,03,13,17.60
2015,06,29,03,14,17.60
2015,06,29,03,15,17.60
2015,06,29,03,16,17.60
2015,06,29,03,17,17.60
2015,06,29,03,18,17.60
2015,06,29,03,19,17.60
2015,06,29,03,20,17.60
2015,06,29,03,21,17.50
2015,06,29,03,22,17.50
2015,06,29,03,23,17.50
2015,06,29,03,24,17.50
2015,06,29,03,25,17.50
2015,06,29,03,26,17.50
2015,06,29,03,27,17.50
2015,06,29,03,28,17.40
2015,06,29,03,29,17.40
2015,06,29,03,30,17.40
2015,06,29,03,31,17.40
2015,06,29,03,32,17.40
2015,06,29,03,33,17.40
2015,06,29,03,34,17.40
2015,06,29,03,35,17.40
2015,06,29,03,36,17.30
2015,06,29,03,37,17.30
2015,06,29,03,38,17.30
2015,06,29,03,39,17.30
2015,06,29,03,40,17.30
2015,06,29,03,41,17.30
2015,06,29,03,42,17.30
2015,06,29,03,43,17.30
2015,06,29,03,44,17.30
2015,06,29,03,45,17.30
2015,06,29,03,46,17.30
2015,06,29,03,47,17.30
2015,06,29,03,48,17.30
2015,06,29,03,49,17.30
2015,06,29,03,50,17.30
2015,06,29,03,51,17.30
2015,06,29,03,52,17.30
2015,06,29,03,53,17.30
2015,06,29,03,54,17.30
2015,06,29,03,55,17.30
2015,06,29,03,56,17.30
2015,06,29,03,57,17.30
2015,06,29,03,58,17.30
2015,06,29,03,59,17.20
2015,06,29,04,00,17.20
2015,06,29,04,01,17.20
2015,06,29,04,02,17.20
2015,06,29,04,03,17.20
2015,06,29,04,04,17.20
2015,06,29,04,05,17.20
2015,06,29,04,06,17.20
2015,06,29,04,07,17.20
2015,06,29,04,08,17.20
2015,06,29,04,09,17.20
2015,06,29,04,10,17.20
2015,06,29,04,11,17.20
2015,06,29,04,12,17.20
2015,06,29,04,13,17.20
2015,06,29,04,14,17.20
2015,06,29,04,15,17.20
2015,06,29,04,16,17.20
2015,06,29,04,17,17.20
2015,06,29,04,18,17.20
2015,06,29,04,19,17.20
2015,06,29,04,20,17.20
2015,06,29,04,21,17.20
2015,06,29,04,22,17.20
2015,06,29,04,23,17.20
2015,06,29,04,24,17.20
2015,06,29,04,25,17.20
2015,06,29,04,26,17.20
2015,06,29,04,27,17.10
2015,06,29,04,28,17.10
2015,06,29,04,29,17.10
2015,06,29,04,30,17.10
2015,06,29,04,31,17.10
2015,06,29,04,32,17.10
2015,06,29,04,33,17.20
2015,06,29,04,34,17.20
2015,06,29,04,35,17.20
2015,06,29,04,36,17.20
2015,06,29,04,37,17.20
2015,06,29,04,38,17.20
2015,06,29,04,39,17.20
2015,06,29,04,40,17.20
2015,06,29,04,41,17.20
2015,06,29,04,42,17.10
2015,06,29,04,43,17.10
2015,06,29,04,44,17.10
2015,06,29,04,45,17.10
2015,06,29,04,46,17.10
2015,06,29,04,47,17.10
2015,06,29,04,48,17.10
2015,06,29,04,49,17.10
2015,06,29,04,50,17.10
2015,06,29,04,51,17.10
2015,06,29,04,52,17.10
2015,06,29,04,53,17.10
2015,06,29,04,54,17.00
2015,06,29,04,55,17.00
2015,06,29,04,56,17.00
2015,06,29,04,57,17.00
2015,06,29,04,58,17.00
2015,06,29,04,59,17.00
2015,06,29,05,00,16.90
2015,06,29,05,01,16.90
2015,06,29,05,02,16.90
2015,06,29,05,03,16.90
2015,06,29,05,04,16.90
2015,06,29,05,05,16.90
2015,06,29,05,06,16.90
2015,06,29,05,07,16.90
2015,06,29,05,08,16.90
2015,06,29,05,09,16.90
2015,06,29,05,10,16.90
2015,06,29,05,11,16.90
2015,06,29,05,12,16.90
2015,06,29,05,13,16.90
2015,06,29,05,14,16.90
2015,06,29,05,15,16.90
2015,06,29,05,16,16.90
2015,06,29,05,17,16.90
2015,06,29,05,18,16.80
2015,06,29,05,19,16.80
2015,06,29,05,20,16.80
2015,06,29,05,21,16.80
2015,06,29,05,22,16.80
2015,06,29,05,23,16.80
2015,06,29,05,24,16.80
2015,06,29,05,25,16.80
2015,06,29,05,26,16.80
2015,06,29,05,27,16.80
2015,06,29,05,28,16.80
2015,06,29,05,29,16.80
2015,06,29,05,30,16.80
2015,06,29,05,31,16.80
2015,06,29,05,32,16.80
2015,06,29,05,33,16.80
2015,06,29,05,34,16.80
2015,06,29,05,35,16.70
2015,06,29,05,36,16.80
2015,06,29,05,37,16.70
2015,06,29,05,38,16.70
2015,06,29,05,39,16.70
2015,06,29,05,40,16.70
2015,06,29,05,41,16.70
2015,06,29,05,42,16.70
2015,06,29,05,43,16.70
2015,06,29,05,44,16.70
2015,06,29,05,45,16.70
2015,06,29,05,46,16.70
2015,06,29,05,47,16.70
2015,06,29,05,48,16.70
2015,06,29,05,49,16.70
2015,06,29,05,50,16.70
2015,06,29,05,51,16.70
2015,06,29,05,52,16.70
2015,06,29,05,53,16.70
2015,06,29,05,54,16.70
2015,06,29,05,55,16.70
2015,06,29,05,56,16.70
2015,06,29,05,57,16.70
2015,06,29,05,58,16.70
2015,06,29,05,59,16.70
2015,06,29,06,00,16.70
2015,06,29,06,01,16.70
2015,06,29,06,02,16.70
2015,06,29,06,03,16.70
2015,06,29,06,04,16.80
2015,06,29,06,05,16.80
2015,06,29,06,06,16.80
2015,06,29,06,07,16.80
2015,06,29,06,08,16.80
2015,06,29,06,09,16.80
2015,06,29,06,10,16.80
2015,06,29,06,11,16.80
2015,06,29,06,12,16.80
2015,06,29,06,13,16.80
2015,06,29,06,14,16.80
2015,06,29,06,15,16.80
2015,06,29,06,16,16.80
2015,06,29,06,17,16.80
2015,06,29,06,18,16.80
2015,06,29,06,19,16.80
2015,06,29,06,20,16.80
2015,06,29,06,21,16.80
2015,06,29,06,22,16.90
2015,06,29,06,23,16.90
2015,06,29,06,24,16.90
2015,06,29,06,25,16.90
2015,06,29,06,26,16.90
2015,06,29,06,27,16.90
2015,06,29,06,28,16.90
2015,06,29,06,29,16.90
2015,06,29,06,30,16.90
2015,06,29,06,31,16.90
2015,06,29,06,32,16.90
2015,06,29,06,33,16.90
2015,06,29,06,34,17.00
2015,06,29,06,35,17.00
2015,06,29,06,36,17.00
2015,06,29,06,37,17.00
2015,06,29,06,38,17.00
2015,06,29,06,39,17.00
2015,06,29,06,40,17.10
2015,06,29,06,41,17.10
2015,06,29,06,42,17.10
2015,06,29,06,43,17.10
2015,06,29,06,44,17.10
2015,06,29,06,45,17.20
2015,06,29,06,46,17.20
2015,06,29,06,47,17.20
2015,06,29,06,48,17.20
2015,06,29,06,49,17.30
2015,06,29,06,50,17.30
2015,06,29,06,51,17.30
2015,06,29,06,52,17.40
2015,06,29,06,53,17.40
2015,06,29,06,54,17.40
2015,06,29,06,55,17.40
2015,06,29,06,56,17.50
2015,06,29,06,57,17.50
2015,06,29,06,58,17.50
2015,06,29,06,59,17.60
2015,06,29,07,00,17.60
2015,06,29,07,01,17.60
2015,06,29,07,02,17.60
2015,06,29,07,03,17.60
2015,06,29,07,04,17.70
2015,06,29,07,05,17.70
2015,06,29,07,06,17.70
2015,06,29,07,07,17.70
2015,06,29,07,08,17.70
2015,06,29,07,09,17.80
2015,06,29,07,10,17.80
2015,06,29,07,11,17.80
2015,06,29,07,12,17.80
2015,06,29,07,13,17.80
2015,06,29,07,14,17.80
2015,06,29,07,15,17.90
2015,06,29,07,16,17.90
2015,06,29,07,17,17.90
2015,06,29,07,18,17.90
2015,06,29,07,19,17.90
2015,06,29,07,20,18.00
2015,06,29,07,21,18.00
2015,06,29,07,22,18.10
2015,06,29,07,23,18.10
2015,06,29,07,24,18.10
2015,06,29,07,25,18.20
2015,06,29,07,26,18.20
2015,06,29,07,27,18.20
2015,06,29,07,28,18.20
2015,06,29,07,29,18.30
2015,06,29,07,30,18.30
2015,06,29,07,31,18.30
2015,06,29,07,32,18.40
2015,06,29,07,33,18.40
2015,06,29,07,34,18.50
2015,06,29,07,35,18.50
2015,06,29,07,36,18.60
2015,06,29,07,37,18.60
2015,06,29,07,38,18.60
2015,06,29,07,39,18.70
2015,06,29,07,40,18.70
2015,06,29,07,41,18.80
2015,06,29,07,42,18.80
2015,06,29,07,43,18.80
2015,06,29,07,44,18.90
2015,06,29,07,45,18.90
2015,06,29,07,46,18.90
2015,06,29,07,47,18.90
2015,06,29,07,48,18.90
2015,06,29,07,49,19.00
2015,06,29,07,50,19.00
2015,06,29,07,51,19.00
2015,06,29,07,52,19.10
2015,06,29,07,53,19.10
2015,06,29,07,54,19.10
2015,06,29,07,55,19.10
2015,06,29,07,56,19.10
2015,06,29,07,57,19.20
2015,06,29,07,58,19.20
2015,06,29,07,59,19.20
2015,06,29,08,00,19.20
2015,06,29,08,01,19.30
2015,06,29,08,02,19.30
2015,06,29,08,03,19.30
2015,06,29,08,04,19.30
2015,06,29,08,05,19.40
2015,06,29,08,06,19.40
2015,06,29,08,07,19.40
2015,06,29,08,08,19.50
2015,06,29,08,09,19.50
2015,06,29,08,10,19.60
2015,06,29,08,11,19.60
2015,06,29,08,12,19.70
2015,06,29,08,13,19.70
2015,06,29,08,14,19.80
2015,06,29,08,15,19.80
2015,06,29,08,16,19.90
2015,06,29,08,17,20.00
2015,06,29,08,18,20.00
2015,06,29,08,19,20.10
2015,06,29,08,20,20.10
2015,06,29,08,21,20.20
2015,06,29,08,22,20.30
2015,06,29,08,23,20.40
2015,06,29,08,24,20.50
2015,06,29,08,25,20.60
2015,06,29,08,26,20.70
2015,06,29,08,27,20.80
2015,06,29,08,28,20.90
2015,06,29,08,29,21.00
2015,06,29,08,30,21.00
2015,06,29,08,31,21.10
2015,06,29,08,32,21.20
2015,06,29,08,33,21.30
2015,06,29,08,34,21.30
2015,06,29,08,35,21.40
2015,06,29,08,36,21.50
2015,06,29,08,37,21.60
2015,06,29,08,38,21.70
2015,06,29,08,39,21.80
2015,06,29,08,40,21.90
2015,06,29,08,41,22.00
2015,06,29,08,42,22.10
2015,06,29,08,43,22.20
2015,06,29,08,44,22.30
2015,06,29,08,45,22.40
2015,06,29,08,46,22.60
2015,06,29,08,47,22.70
2015,06,29,08,48,22.80
2015,06,29,08,49,22.90
2015,06,29,08,50,23.00
2015,06,29,08,51,23.10
2015,06,29,08,52,23.20
2015,06,29,08,53,23.20
2015,06,29,08,54,23.20
2015,06,29,08,55,23.30
2015,06,29,08,56,23.30
2015,06,29,08,57,23.30
2015,06,29,08,58,23.40
2015,06,29,08,59,23.40
2015,06,29,09,00,23.50
2015,06,29,09,01,23.50
2015,06,29,09,02,23.60
2015,06,29,09,03,23.70
2015,06,29,09,04,23.80
2015,06,29,09,05,23.90
2015,06,29,09,06,24.00
2015,06,29,09,07,24.10
2015,06,29,09,08,24.20
2015,06,29,09,09,24.20
2015,06,29,09,10,24.30
2015,06,29,09,11,24.40
2015,06,29,09,12,24.50
2015,06,29,09,13,24.50
2015,06,29,09,14,24.60
2015,06,29,09,15,24.70
2015,06,29,09,16,24.80
2015,06,29,09,17,24.90
2015,06,29,09,18,25.00
2015,06,29,09,19,25.00
2015,06,29,09,20,25.10
2015,06,29,09,21,25.10
2015,06,29,09,22,25.20
2015,06,29,09,23,25.20
2015,06,29,09,24,25.30
2015,06,29,09,25,25.40
2015,06,29,09,26,25.50
2015,06,29,09,27,25.50
2015,06,29,09,28,25.60
2015,06,29,09,29,25.70
2015,06,29,09,30,25.80
2015,06,29,09,31,25.90
2015,06,29,09,32,25.90
2015,06,29,09,33,26.00
2015,06,29,09,34,26.00
2015,06,29,09,35,26.10
2015,06,29,09,36,26.10
2015,06,29,09,37,26.10
2015,06,29,09,38,26.10
2015,06,29,09,39,26.10
2015,06,29,09,40,26.20
2015,06,29,09,41,26.30
2015,06,29,09,42,26.30
2015,06,29,09,43,26.30
2015,06,29,09,44,26.40
2015,06,29,09,45,26.40
2015,06,29,09,46,26.40
2015,06,29,09,47,26.50
2015,06,29,09,48,26.50
2015,06,29,09,49,26.50
2015,06,29,09,50,26.60
2015,06,29,09,51,26.60
2015,06,29,09,52,26.60
2015,06,29,09,53,26.60
2015,06,29,09,54,26.60
2015,06,29,09,55,26.70
2015,06,29,09,56,26.70
2015,06,29,09,57,26.80
2015,06,29,09,58,26.80
2015,06,29,09,59,26.80
2015,06,29,10,00,26.80
2015,06,29,10,01,26.90
2015,06,29,10,02,26.90
2015,06,29,10,03,26.90
2015,06,29,10,04,26.90
2015,06,29,10,05,26.80
2015,06,29,10,06,26.80
2015,06,29,10,07,26.80
2015,06,29,10,08,26.80
2015,06,29,10,09,26.80
2015,06,29,10,10,26.80
2015,06,29,10,11,26.90
2015,06,29,10,12,26.90
2015,06,29,10,13,27.00
2015,06,29,10,14,27.00
2015,06,29,10,15,27.10
2015,06,29,10,16,27.10
2015,06,29,10,17,27.20
2015,06,29,10,18,27.20
2015,06,29,10,19,27.20
2015,06,29,10,20,27.30
2015,06,29,10,21,27.30
2015,06,29,10,22,27.30
2015,06,29,10,23,27.40
2015,06,29,10,24,27.40
2015,06,29,10,25,27.40
2015,06,29,10,26,27.50
2015,06,29,10,27,27.50
2015,06,29,10,28,27.50
2015,06,29,10,29,27.50
2015,06,29,10,30,27.60
2015,06,29,10,31,27.60
2015,06,29,10,32,27.70
2015,06,29,10,33,27.70
2015,06,29,10,34,27.70
2015,06,29,10,35,27.70
2015,06,29,10,36,27.70
2015,06,29,10,37,27.70
2015,06,29,10,38,27.70
2015,06,29,10,39,27.70
2015,06,29,10,40,27.70
2015,06,29,10,41,27.60
2015,06,29,10,42,27.60
2015,06,29,10,43,27.60
2015,06,29,10,44,27.60
2015,06,29,10,45,27.60
2015,06,29,10,46,27.60
2015,06,29,10,47,27.60
2015,06,29,10,48,27.60
2015,06,29,10,49,27.60
2015,06,29,10,50,27.60
2015,06,29,10,51,27.50
2015,06,29,10,52,27.50
2015,06,29,10,53,27.50
2015,06,29,10,54,27.40
2015,06,29,10,55,27.40
2015,06,29,10,56,27.40
2015,06,29,10,57,27.30
2015,06,29,10,58,27.30
2015,06,29,10,59,27.30
2015,06,29,11,00,27.30
2015,06,29,11,01,27.20
2015,06,29,11,02,27.20
2015,06,29,11,03,27.20
2015,06,29,11,04,27.20
2015,06,29,11,05,27.10
2015,06,29,11,06,27.20
2015,06,29,11,07,27.20
2015,06,29,11,08,27.20
2015,06,29,11,09,27.30
2015,06,29,11,10,27.30
2015,06,29,11,11,27.30
2015,06,29,11,12,27.30
2015,06,29,11,13,27.30
2015,06,29,11,14,27.30
2015,06,29,11,15,27.30
2015,06,29,11,16,27.30
2015,06,29,11,17,27.30
2015,06,29,11,18,27.30
2015,06,29,11,19,27.30
2015,06,29,11,20,27.30
2015,06,29,11,21,27.30
2015,06,29,11,22,27.30
2015,06,29,11,23,27.30
2015,06,29,11,24,27.40
2015,06,29,11,25,27.40
2015,06,29,11,26,27.40
2015,06,29,11,27,27.50
2015,06,29,11,28,27.60
2015,06,29,11,29,27.60
2015,06,29,11,30,27.70
2015,06,29,11,31,27.70
2015,06,29,11,32,27.60
2015,06,29,11,33,27.60
2015,06,29,11,34,27.60
2015,06,29,11,35,27.60
2015,06,29,11,36,27.60
2015,06,29,11,37,27.60
2015,06,29,11,38,27.60
2015,06,29,11,39,27.60
2015,06,29,11,40,27.60
2015,06,29,11,41,27.60
2015,06,29,11,42,27.60
2015,06,29,11,43,27.70
2015,06,29,11,44,27.70
2015,06,29,11,45,27.70
2015,06,29,11,46,27.80
2015,06,29,11,47,27.80
2015,06,29,11,48,27.80
2015,06,29,11,49,27.80
2015,06,29,11,50,27.90
2015,06,29,11,51,27.90
2015,06,29,11,52,27.90
2015,06,29,11,53,28.00
2015,06,29,11,54,28.00
2015,06,29,11,55,28.10
2015,06,29,11,56,28.10
2015,06,29,11,57,28.10
2015,06,29,11,58,28.10
2015,06,29,11,59,28.10
2015,06,29,12,00,28.10
2015,06,29,12,01,28.00
2015,06,29,12,02,27.90
2015,06,29,12,03,27.80
2015,06,29,12,04,27.80
2015,06,29,12,05,27.80
2015,06,29,12,06,27.70
2015,06,29,12,07,27.70
2015,06,29,12,08,27.60
2015,06,29,12,09,27.60
2015,06,29,12,10,27.60
2015,06,29,12,11,27.60
2015,06,29,12,12,27.60
2015,06,29,12,13,27.60
2015,06,29,12,14,27.60
2015,06,29,12,15,27.50
2015,06,29,12,16,27.50
2015,06,29,12,17,27.50
2015,06,29,12,18,27.40
2015,06,29,12,19,27.40
2015,06,29,12,20,27.40
2015,06,29,12,21,27.40
2015,06,29,12,22,27.40
2015,06,29,12,23,27.30
2015,06,29,12,24,27.30
2015,06,29,12,25,27.30
2015,06,29,12,26,27.30
2015,06,29,12,27,27.30
2015,06,29,12,28,27.30
2015,06,29,12,29,27.30
2015,06,29,12,30,27.40
2015,06,29,12,31,27.40
2015,06,29,12,32,27.40
2015,06,29,12,33,27.50
2015,06,29,12,34,27.50
2015,06,29,12,35,27.50
2015,06,29,12,36,27.60
2015,06,29,12,37,27.60
2015,06,29,12,38,27.70
2015,06,29,12,39,27.70
2015,06,29,12,40,27.80
2015,06,29,12,41,27.80
2015,06,29,12,42,27.80
2015,06,29,12,43,27.80
2015,06,29,12,44,27.80
2015,06,29,12,45,27.90
2015,06,29,12,46,27.90
2015,06,29,12,47,27.90
2015,06,29,12,48,27.90
2015,06,29,12,49,28.00
2015,06,29,12,50,28.00
2015,06,29,12,51,28.00
2015,06,29,12,52,28.10
2015,06,29,12,53,28.20
2015,06,29,12,54,28.30
2015,06,29,12,55,28.30
2015,06,29,12,56,28.30
2015,06,29,12,57,28.30
2015,06,29,12,58,28.30
2015,06,29,12,59,28.30
2015,06,29,13,00,28.20
2015,06,29,13,01,28.10
2015,06,29,13,02,28.10
2015,06,29,13,03,28.00
2015,06,29,13,04,27.90
2015,06,29,13,05,27.90
2015,06,29,13,06,27.90
2015,06,29,13,07,27.90
2015,06,29,13,08,27.90
2015,06,29,13,09,27.90
2015,06,29,13,10,27.90
2015,06,29,13,11,27.90
2015,06,29,13,12,27.90
2015,06,29,13,13,27.80
2015,06,29,13,14,27.80
2015,06,29,13,15,27.80
2015,06,29,13,16,27.80
2015,06,29,13,17,27.80
2015,06,29,13,18,27.80
2015,06,29,13,19,27.80
2015,06,29,13,20,27.70
2015,06,29,13,21,27.70
2015,06,29,13,22,27.80
2015,06,29,13,23,27.80
2015,06,29,13,24,27.80
2015,06,29,13,25,27.80
2015,06,29,13,26,27.80
2015,06,29,13,27,27.80
2015,06,29,13,28,27.80
2015,06,29,13,29,27.80
2015,06,29,13,30,27.90
2015,06,29,13,31,27.90
2015,06,29,13,32,27.90
2015,06,29,13,33,28.00
2015,06,29,13,34,28.00
2015,06,29,13,35,28.00
2015,06,29,13,36,28.00
2015,06,29,13,37,28.00
2015,06,29,13,38,28.00
2015,06,29,13,39,28.00
2015,06,29,13,40,28.00
2015,06,29,13,41,28.00
2015,06,29,13,42,28.00
2015,06,29,13,43,27.90
2015,06,29,13,44,27.90
2015,06,29,13,45,27.90
2015,06,29,13,46,27.90
2015,06,29,13,47,27.90
2015,06,29,13,48,27.90
2015,06,29,13,49,27.80
2015,06,29,13,50,27.80
2015,06,29,13,51,27.90
2015,06,29,13,52,27.90
2015,06,29,13,53,27.90
2015,06,29,13,54,27.90
2015,06,29,13,55,27.90
2015,06,29,13,56,27.90
2015,06,29,13,57,27.90
2015,06,29,13,58,27.90
2015,06,29,13,59,27.90
2015,06,29,14,00,27.90
2015,06,29,14,01,27.90
2015,06,29,14,02,27.80
2015,06,29,14,03,27.80
2015,06,29,14,04,27.80
2015,06,29,14,05,27.90
2015,06,29,14,06,27.90
2015,06,29,14,07,27.90
2015,06,29,14,08,28.00
2015,06,29,14,09,28.10
2015,06,29,14,10,28.20
2015,06,29,14,11,28.20
2015,06,29,14,12,28.20
2015,06,29,14,13,28.20
2015,06,29,14,14,28.20
2015,06,29,14,15,28.20
2015,06,29,14,16,28.20
2015,06,29,14,17,28.20
2015,06,29,14,18,28.20
2015,06,29,14,19,28.20
2015,06,29,14,20,28.20
2015,06,29,14,21,28.20
2015,06,29,14,22,28.20
2015,06,29,14,23,28.20
2015,06,29,14,24,28.20
2015,06,29,14,25,28.20
2015,06,29,14,26,28.20
2015,06,29,14,27,28.20
2015,06,29,14,28,28.10
2015,06,29,14,29,28.10
2015,06,29,14,30,28.10
2015,06,29,14,31,28.10
2015,06,29,14,32,28.10
2015,06,29,14,33,28.10
2015,06,29,14,34,28.10
2015,06,29,14,35,28.10
2015,06,29,14,36,28.10
2015,06,29,14,37,28.10
2015,06,29,14,38,28.10
2015,06,29,14,39,28.10
2015,06,29,14,40,28.10
2015,06,29,14,41,28.20
2015,06,29,14,42,28.30
2015,06,29,14,43,28.30
2015,06,29,14,44,28.40
2015,06,29,14,45,28.40
2015,06,29,14,46,28.50
2015,06,29,14,47,28.50
2015,06,29,14,48,28.50
2015,06,29,14,49,28.60
2015,06,29,14,50,28.60
2015,06,29,14,51,28.60
2015,06,29,14,52,28.60
2015,06,29,14,53,28.70
2015,06,29,14,54,28.80
2015,06,29,14,55,28.80
2015,06,29,14,56,28.80
2015,06,29,14,57,28.90
2015,06,29,14,58,28.90
2015,06,29,14,59,28.90
2015,06,29,15,00,28.80
2015,06,29,15,01,28.80
2015,06,29,15,02,28.80
2015,06,29,15,03,28.70
2015,06,29,15,04,28.70
2015,06,29,15,05,28.70
2015,06,29,15,06,28.80
2015,06,29,15,07,28.80
2015,06,29,15,08,28.80
2015,06,29,15,09,28.90
2015,06,29,15,10,28.90
2015,06,29,15,11,29.00
2015,06,29,15,12,29.00
2015,06,29,15,13,29.10
2015,06,29,15,14,29.10
2015,06,29,15,15,29.10
2015,06,29,15,16,29.10
2015,06,29,15,17,29.10
2015,06,29,15,18,29.10
2015,06,29,15,19,29.10
2015,06,29,15,20,29.10
2015,06,29,15,21,29.20
2015,06,29,15,22,29.20
2015,06,29,15,23,29.20
2015,06,29,15,24,29.20
2015,06,29,15,25,29.10
2015,06,29,15,26,29.10
2015,06,29,15,27,29.10
2015,06,29,15,28,29.00
2015,06,29,15,29,29.00
2015,06,29,15,30,29.10
2015,06,29,15,31,29.10
2015,06,29,15,32,29.20
2015,06,29,15,33,29.20
2015,06,29,15,34,29.30
2015,06,29,15,35,29.40
2015,06,29,15,36,29.40
2015,06,29,15,37,29.50
2015,06,29,15,38,29.60
2015,06,29,15,39,29.70
2015,06,29,15,40,29.70
2015,06,29,15,41,29.60
2015,06,29,15,42,29.70
2015,06,29,15,43,29.70
2015,06,29,15,44,29.70
2015,06,29,15,45,29.70
2015,06,29,15,46,29.60
2015,06,29,15,47,29.60
2015,06,29,15,48,29.60
2015,06,29,15,49,29.60
2015,06,29,15,50,29.60
2015,06,29,15,51,29.70
2015,06,29,15,52,29.70
2015,06,29,15,53,29.70
2015,06,29,15,54,29.80
2015,06,29,15,55,29.80
2015,06,29,15,56,29.80
2015,06,29,15,57,29.80
2015,06,29,15,58,29.80
2015,06,29,15,59,29.80
2015,06,29,16,00,29.80
2015,06,29,16,01,29.80
2015,06,29,16,02,29.80
2015,06,29,16,03,29.70
2015,06,29,16,04,29.70
2015,06,29,16,05,29.70
2015,06,29,16,06,29.70
2015,06,29,16,07,29.60
2015,06,29,16,08,29.60
2015,06,29,16,09,29.60
2015,06,29,16,10,29.60
2015,06,29,16,11,29.60
2015,06,29,16,12,29.60
2015,06,29,16,13,29.60
2015,06,29,16,14,29.70
2015,06,29,16,15,29.70
2015,06,29,16,16,29.70
2015,06,29,16,17,29.70
2015,06,29,16,18,29.70
2015,06,29,16,19,29.60
2015,06,29,16,20,29.60
2015,06,29,16,21,29.60
2015,06,29,16,22,29.60
2015,06,29,16,23,29.60
2015,06,29,16,24,29.60
2015,06,29,16,25,29.60
2015,06,29,16,26,29.60
2015,06,29,16,27,29.60
2015,06,29,16,28,29.60
2015,06,29,16,29,29.70
2015,06,29,16,30,29.70
2015,06,29,16,31,29.70
2015,06,29,16,32,29.80
2015,06,29,16,33,29.80
2015,06,29,16,34,29.80
2015,06,29,16,35,29.80
2015,06,29,16,36,29.90
2015,06,29,16,37,29.80
2015,06,29,16,38,29.80
2015,06,29,16,39,29.80
2015,06,29,16,40,29.80
2015,06,29,16,41,29.80
2015,06,29,16,42,29.80
2015,06,29,16,43,29.80
2015,06,29,16,44,29.80
2015,06,29,16,45,29.80
2015,06,29,16,46,29.80
2015,06,29,16,47,29.80
2015,06,29,16,48,29.90
2015,06,29,16,49,29.90
2015,06,29,16,50,29.90
2015,06,29,16,51,30.00
2015,06,29,16,52,30.00
2015,06,29,16,53,30.00
2015,06,29,16,54,30.00
2015,06,29,16,55,30.10
2015,06,29,16,56,30.10
2015,06,29,16,57,30.10
2015,06,29,16,58,30.20
2015,06,29,16,59,30.20
2015,06,29,17,00,30.20
2015,06,29,17,01,30.30
2015,06,29,17,02,30.30
2015,06,29,17,03,30.30
2015,06,29,17,04,30.30
2015,06,29,17,05,30.30
2015,06,29,17,06,30.30
2015,06,29,17,07,30.30
2015,06,29,17,08,30.30
2015,06,29,17,09,30.30
2015,06,29,17,10,30.30
2015,06,29,17,11,30.40
2015,06,29,17,12,30.40
2015,06,29,17,13,30.50
2015,06,29,17,14,30.60
2015,06,29,17,15,30.60
2015,06,29,17,16,30.50
2015,06,29,17,17,30.50
2015,06,29,17,18,30.50
2015,06,29,17,19,30.40
2015,06,29,17,20,30.40
2015,06,29,17,21,30.30
2015,06,29,17,22,30.30